Retour au catalogue

NOAA 16 DEB

ActifSSO
NORAD 41510·DEBRIS·🇺🇸 United States

Lancé Sep 21, 2000 depuis Vandenberg Space Force Base

Loading…

Prochains Passages (prochaines 24 heures)

TLE

FraisSource: Space-Track

Époque: Sep 13, 2026, 12:05 UTC

1 41510U 00055MJ  26256.50370706  .00002601  00000-0  10162-2 0  9991
2 41510  98.7559 350.6871 0024971 114.8608 245.5174 14.30284356542013

Suivez NOAA 16 DEB en temps réel avec AllMySat

Download on the App Store